Location: Albany
(35.0170°S, 117.8920°E)
Time: 21:25:25
(UTC+08:00)

A-11 Canister half - Pass Details

Date: 28 January 2021
Orbit: 1525 x 1684 km, 47.3° (Epoch: 03 March)

Event Time Altitude Azimuth Distance (km) Brightness Sun altitude
Rises 02:14:54 0° 291° (WNW) 4,937 - -30.3°
Reaches altitude 10° 02:18:08 10° 287° (WNW) 3,951 - -29.9°
Exits shadow 02:23:25 35° 274° (W) 2,499 9.7 -29.4°
Maximum altitude 02:28:13 63° 207° (SSW) 1,843 9.4 -28.8°
Drops below altitude 10° 02:38:09 10° 126° (SE) 3,890 12.0 -27.6°
Sets 02:41:20 0° 122° (ESE) 4,857 12.7 -27.2°
